Harlingen, TX

11:58 AM CDT on April 27, 2017 (GMT -0500)
Valley International

Weather History for KHRL - February, 2013

Change the Weather History Date:

Tuesday, February 26, 2013

  Actual Average Record
Temperature  
Mean Temperature 59 °F 65 °F  
Max Temperature 75 °F 76 °F 95 °F (1913)
Min Temperature 42 °F 54 °F 30 °F (1880)
Degree Days  
Heating Degree Days 6 3  
Month to date heating degree days 42 113  
Since 1 July heating degree days 341 561  
Cooling Degree Days 0 3  
Month to date cooling degree days 123 69  
Year to date cooling degree days 193 118  
Growing Degree Days 8 (Base 50)    
Moisture  
Dew Point 28 °F    
Average Humidity 45    
Maximum Humidity 77    
Minimum Humidity 12    
Precipitation  
Precipitation 0.00 in 0.03 in 2.17 in (1983)
Month to date precipitation 0.20 1.34  
Year to date precipitation 2.74 2.40  
Sea Level Pressure  
Sea Level Pressure 29.95 in    
Wind  
Wind Speed 9 mph (West)    
Max Wind Speed 22 mph    
Max Gust Speed 29 mph    
Visibility 10 miles    
Events      
T = Trace of Precipitation, MM = Missing Value Source: NWS Daily Summary

Daily Weather History Graph

Daily Weather History Graph

Search for Another Location

Airport or City:

Trip Planner

Search our weather history database for the weather conditions in past years. The results will help you decide how hot, cold, wet, or windy it might be!

Date:

Astronomy

Feb. 26, 2013 Rise Set
Actual Time 6:56 AM CST 6:30 PM CST
Civil Twilight 6:33 AM CST 6:53 PM CST
Nautical Twilight 6:06 AM CST 7:20 PM CST
Astronomical Twilight 5:39 AM CST 7:47 PM CST
Moon 7:35 PM CST (2/26) 7:09 AM CST (2/26)
Length of Visible Light 12h 20m
Length of Day
11h 33m
Full, 99% of the Moon is Illuminated
Feb 26
Full
Mar 4
Last Quarter
Mar 11
New
Mar 19
First Quarter
Mar 27
Full

Hourly Weather History & Observations

Time (CST) Temp. Dew Point Humidity Pressure Visibility Wind Dir Wind Speed Gust Speed Precip Events Conditions
12:52 AM 57.0 °F 21.0 °F 25% 29.88 in 10.0 mi NNW 19.6 mph - N/A   Clear
1:52 AM 55.9 °F 21.0 °F 26% 29.91 in 10.0 mi NNW 15.0 mph - N/A   Clear
2:52 AM 55.0 °F 21.9 °F 28% 29.95 in 10.0 mi NNW 9.2 mph - N/A   Clear
3:52 AM 54.0 °F 23.0 °F 30% 29.95 in 10.0 mi NNW 12.7 mph - N/A   Clear
4:52 AM 46.9 °F 24.1 °F 41% 29.96 in 10.0 mi WNW 8.1 mph - N/A   Clear
5:52 AM 48.0 °F 24.1 °F 39% 29.99 in 10.0 mi West 4.6 mph - N/A   Clear
6:52 AM 43.0 °F 25.0 °F 49% 30.00 in 10.0 mi Calm Calm - N/A   Clear
7:52 AM 50.0 °F 30.0 °F 46% 30.01 in 10.0 mi Calm Calm - N/A   Clear
8:52 AM 55.4 °F 26.6 °F 33% 30.04 in 10.0 mi WNW 8.1 mph - N/A   Clear
9:52 AM 60.1 °F 25.0 °F 26% 30.04 in 10.0 mi NNW 6.9 mph - N/A   Clear
10:52 AM 64.9 °F 23.0 °F 20% 30.02 in 10.0 mi North 12.7 mph 18.4 mph N/A   Clear
11:52 AM 66.9 °F 23.0 °F 19% 30.00 in 10.0 mi NNW 10.4 mph - N/A   Partly Cloudy
12:52 PM 72.0 °F 21.0 °F 15% 29.97 in 10.0 mi NNE 5.8 mph - N/A   Clear
1:52 PM 73.4 °F 19.4 °F 13% 29.93 in 10.0 mi Variable 5.8 mph - N/A   Clear
2:52 PM 73.0 °F 17.1 °F 12% 29.90 in 10.0 mi SSW 3.5 mph - N/A   Clear
3:52 PM 73.9 °F 17.1 °F 12% 29.88 in 10.0 mi WSW 4.6 mph - N/A   Clear
4:52 PM 72.0 °F 26.1 °F 18% 29.88 in 10.0 mi SE 17.3 mph - N/A   Clear
5:52 PM 68.0 °F 35.1 °F 30% 29.90 in 10.0 mi SE 18.4 mph - N/A   Clear
6:52 PM 62.1 °F 37.9 °F 41% 29.91 in 10.0 mi SE 13.8 mph - N/A   Clear
7:52 PM 57.0 °F 39.9 °F 53% 29.94 in 10.0 mi SSE 11.5 mph - N/A   Clear
8:52 PM 52.0 °F 41.0 °F 66% 29.95 in 10.0 mi SSE 6.9 mph - N/A   Clear
9:52 PM 50.0 °F 41.0 °F 71% 29.94 in 10.0 mi South 8.1 mph - N/A   Clear
10:52 PM 51.8 °F 44.6 °F 76% 29.94 in 10.0 mi South 9.2 mph - N/A   Clear
11:52 PM 53.1 °F 46.9 °F 80% 29.91 in 10.0 mi SSE 9.2 mph - N/A   Clear